This is the latest recevied weather packets stored in our database for station/object 2E0RGX-13. If no packets are shown the sender has not sent any weather packets the latest 10 day(s).
| Time | Temp. | Humidity | Pressure | Rain* | Wind** | Luminosity | Snow |
|---|---|---|---|---|---|---|---|
| 1777840069 | 17.22° C | 65% | 1006.6 hPa | 0 mm | - | 0 W/m² | - |
| 1777839765 | 17.22° C | 65% | 1006.8 hPa | 0 mm | - | 0 W/m² | - |
| 1777839461 | 17.22° C | 65% | 1006.7 hPa | 0 mm | - | 0 W/m² | - |
| 1777837637 | 17.22° C | 64% | 1006.3 hPa | 0 mm | - | 0 W/m² | - |
| 1777837029 | 17.22° C | 64% | 1006.2 hPa | 0 mm | - | 0 W/m² | - |
| 1777836725 | 17.22° C | 63% | 1006.1 hPa | 0 mm | - | 0 W/m² | - |
| 1777836421 | 17.22° C | 62% | 1005.9 hPa | 0 mm | - | 0 W/m² | - |
| 1777836117 | 17.22° C | 61% | 1005.9 hPa | 0 mm | - | 0 W/m² | - |
| 1777835816 | 17.78° C | 61% | 1005.9 hPa | 0 mm | - | 0 W/m² | - |
| 1777835508 | 17.78° C | 61% | 1005.7 hPa | 0 mm | - | 0 W/m² | - |
| 1777833381 | 17.78° C | 59% | 1005.6 hPa | 0 mm | - | 0 W/m² | - |
| 1777833077 | 18.33° C | 59% | 1005.5 hPa | 0 mm | - | 0 W/m² | - |
| 1777832773 | 18.33° C | 59% | 1005.6 hPa | 0 mm | - | 0 W/m² | - |
| 1777832469 | 18.33° C | 59% | 1005.2 hPa | 0 mm | - | 0 W/m² | - |
| 1777831861 | 18.33° C | 57% | 1005.4 hPa | 0 mm | - | 0 W/m² | - |
| 1777831557 | 18.89° C | 57% | 1005.4 hPa | 0 mm | - | 1 W/m² | - |
| 1777831253 | 18.33° C | 58% | 1005.3 hPa | 0 mm | - | 1 W/m² | - |
| 1777830949 | 18.33° C | 58% | 1005.4 hPa | 0 mm | - | 1 W/m² | - |
| 1777829125 | 18.33° C | 59% | 1005.2 hPa | 0 mm | - | 1 W/m² | - |
| 1777828517 | 18.33° C | 58% | 1005.3 hPa | 0 mm | - | 1 W/m² | - |
| 1777828213 | 19.44° C | 57% | 1005.4 hPa | 0 mm | - | 1 W/m² | - |
| 1777827301 | 18.33° C | 58% | 1005.4 hPa | 0 mm | - | 1 W/m² | - |
| 1777817571 | 18.89° C | 59% | 1005.8 hPa | 0 mm | - | 3 W/m² | - |
| 1777813316 | 18.89° C | 60% | 1006.1 hPa | 0 mm | - | 3 W/m² | - |
| 1777813012 | 17.78° C | 61% | 1006 hPa | 0 mm | - | 2 W/m² | - |
* Rain latest hour (hover to see other rain measurements)
** Current wind speed in m/s (hover to see current wind gust speed)